Weather in Pokrovka

Russia / Novosibirsk Oblast     55°33′38″N   77°13′35″E
temp.,
°C
wind,
m/s
gust,
m/s
humid.,
%
clouds,
%
prec.,
mm/h
press.,
hPa
HPBL,
m
22 january, fri
fri2201:00−19sw3697100 0.0 1012238
04:00−20wsw4898100 0.1 1010272
07:00−24w489896 0.2 1011164
10:00−28w479835 0.0 101390
13:00−25wsw479617 0.0 1015216
16:00−24wsw479536 0.0 1017244
19:00−28wsw459720 0.0 101883
22:00−28wsw349758 0.0 102079
23 january, sat
sat2301:00−27sw359878 0.1 1022116
04:00−26sw359899 0.1 1023184
07:00−26sw239895 0.1 102575
10:00−25sw2498100 0.1 102696
13:00−24wsw239699 0.1 1027215
16:00−23w2395100 0.1 1028296
19:00−26nw239899 0.1 103064
22:00−28nw3597100 0.1 1032180
24 january, sun
sun2401:00−33nw3497100 0.1 103361
04:00−35nw349776 0.0 103547
07:00−37nw349760 0.0 103656
10:00−39nw34966 0.0 103850
13:00−38nw359414 0.0 1039185
16:00−37wnw359433 0.0 1040262
19:00−40wnw239531 0.0 104219
22:00−42nw22953 0.0 104418
25 january, mon
mon2501:00−42nw22951 0.0 104518
04:00−43nw11970 0.0 104618
07:00−44wnw01980 0.0 104618
10:00−44e019733 0.0 104718
13:00−38se119056 0.0 1047103
16:00−36ese2290100 0.0 1046162
19:00−39ese239358 0.0 104618
22:00−40ese239210 0.0 104618
26 january, tue
tue2601:00−40ese239118 0.0 104619
04:00−39e339056 0.0 104625
07:00−39e338933 0.0 104535
10:00−39e33884 0.0 104639
13:00−36e348824 0.0 1046140
16:00−34e349073 0.0 1046160
19:00−36e349041 0.0 104764
22:00−36ese369135 0.0 104790